Theta_e
288 288 288 289 289 289 289 290 290 290 290 290 290 290 290 290 291 291 291 291 292 292 291 291 292 292 293 293 294 294 294 294 295 295 295 295 296 295 295 295 295 295 294 294 294 294 293 293 293 293 292 292 291 291 290 291 291 290 290 290 290 290
288 288 288 288 288 288 289 289 289 289 289 289 290 290 290 290 290 290 290 291 291 291 291 291 291 291 292 292 292 292 292 293 293 294 294 294 295 295 295 295 294 294 294 293 293 293 293 293 292 292 292 291 291 290 290 290 290 289 289 289 289 289
287 287 288 288 288 289 289 289 288 289 289 289 289 289 289 289 289 290 290 290 290 289 289 290 290 290 291 291 291 291 291 292 292 293 293 294 293 294 294 294 294 294 294 293 293 292 292 292 291 291 291 291 290 290 289 289 289 288 288 288 288 288
286 287 288 288 288 288 287 288 288 288 288 288 289 289 289 289 288 289 289 290 289 288 288 288 289 289 290 289 290 289 290 290 291 292 292 292 292 293 293 293 293 293 293 293 292 292 292 292 291 291 290 290 289 289 289 288 288 287 287 287 287 287
286 286 286 287 287 287 287 287 287 287 287 287 288 288 288 289 289 289 289 288 288 288 288 287 287 288 288 288 288 288 288 289 290 291 290 291 291 292 292 292 292 292 292 292 292 292 291 291 291 290 289 289 289 288 288 288 287 287 286 286 286 286
286 286 286 286 286 286 286 287 287 287 287 287 287 287 287 288 289 289 288 288 288 288 288 288 288 287 287 286 287 287 288 289 289 290 290 290 290 290 291 291 291 291 291 291 291 290 290 290 290 290 289 289 288 288 287 287 287 286 286 286 286 286
285 285 286 286 286 287 287 286 286 286 286 286 286 286 287 288 288 288 288 288 287 288 288 288 288 287 287 287 287 287 288 288 289 289 289 289 289 290 290 290 290 290 290 290 289 289 289 289 289 289 289 289 288 288 287 287 287 286 286 286 286 286
286 286 286 286 286 286 286 286 286 286 286 285 286 286 287 287 288 288 287 287 287 287 287 287 287 287 287 287 287 287 287 287 288 288 289 289 289 289 289 289 289 289 288 288 289 289 289 289 288 288 288 288 288 287 287 287 287 286 286 286 284 284
285 285 285 286 286 286 286 286 286 286 285 285 285 286 286 287 287 287 286 287 287 287 286 286 286 286 286 286 286 287 287 287 287 287 288 288 288 288 288 289 289 289 288 287 288 288 288 288 288 288 287 287 287 286 285 286 286 286 286 286 285 285
285 285 285 285 286 286 286 286 286 285 285 285 285 285 286 287 286 286 286 286 286 286 286 287 287 287 287 287 287 287 287 287 287 287 288 288 288 287 288 288 288 288 288 287 287 287 288 288 288 288 288 287 287 286 286 285 285 285 285 285 285 285
285 285 285 285 286 286 286 286 286 285 285 285 285 284 285 286 286 285 285 285 285 285 286 286 287 287 287 287 286 286 286 287 287 286 287 287 287 288 288 288 288 287 287 287 287 287 287 287 287 288 287 287 287 286 286 285 285 285 285 284 284 284
285 285 286 285 285 285 285 286 285 285 285 285 284 284 285 285 285 285 285 284 285 285 286 286 286 286 286 286 286 286 286 286 286 286 286 286 287 287 287 287 287 287 287 287 287 287 287 286 287 287 287 288 287 287 286 286 285 285 285 284 283 283
285 285 285 285 285 285 285 285 285 285 284 285 284 284 284 285 284 284 284 284 284 285 285 285 285 285 285 285 285 285 286 286 286 285 285 286 286 286 286 286 286 286 286 286 286 286 287 287 287 287 289 289 289 287 286 285 285 285 285 284 283 283
285 285 285 285 285 285 285 285 285 284 284 284 283 283 284 284 284 283 283 283 284 284 284 284 284 284 284 284 284 284 285 285 285 285 285 285 285 285 285 285 286 286 286 285 285 285 286 286 287 288 288 289 289 289 286 286 285 285 285 284 283 283
285 285 285 286 286 286 286 286 285 284 284 284 283 283 282 283 283 283 283 283 283 283 283 283 283 283 282 282 283 284 285 285 285 285 285 284 285 285 284 285 285 285 286 285 285 284 285 285 287 288 288 289 289 289 288 286 285 285 285 284 284 283
286 286 286 286 286 286 286 286 285 285 285 283 283 282 282 282 282 282 282 282 282 283 282 282 282 281 281 281 281 283 284 285 284 284 284 285 285 284 284 284 284 284 284 285 285 285 285 285 286 287 287 288 288 289 288 286 285 285 285 285 284 283
286 286 286 286 286 286 286 286 286 285 284 283 282 282 281 281 281 281 281 281 281 282 281 281 280 280 279 279 280 281 283 284 284 284 284 284 283 283 283 283 283 283 283 284 284 284 284 284 286 286 287 287 288 288 288 286 286 285 285 285 284 283
285 285 286 287 287 286 286 285 285 284 283 283 281 281 280 280 280 280 280 280 280 280 280 280 279 278 277 277 278 279 281 283 283 282 282 282 282 283 283 283 284 283 283 284 284 283 283 284 285 286 286 286 287 287 286 286 286 285 285 285 285 283
286 286 287 287 286 286 285 285 284 283 282 281 281 280 279 279 278 279 279 279 279 279 280 279 278 277 276 276 276 277 280 281 281 280 280 280 281 281 281 282 282 283 283 282 283 282 282 283 285 285 285 286 286 286 285 286 286 285 285 285 285 284
287 287 287 286 285 285 285 284 283 282 281 280 280 279 278 278 278 278 278 278 278 279 279 278 276 275 275 275 275 276 279 280 279 278 278 278 278 279 280 281 281 281 282 282 282 282 282 282 283 285 285 285 286 285 285 285 285 285 285 285 285 284
286 286 285 285 284 284 284 282 281 280 279 279 279 278 277 277 278 278 277 277 278 278 278 277 276 275 274 274 274 276 277 277 276 276 276 276 276 277 278 279 280 281 281 282 282 282 282 282 283 284 284 285 285 285 285 284 284 284 284 285 284 284
284 283 283 283 283 284 282 281 279 278 278 278 278 277 276 277 277 278 278 277 277 277 276 276 274 274 273 273 274 275 275 275 274 274 274 274 274 275 276 277 279 279 280 281 281 281 281 281 282 282 283 284 285 285 284 284 284 283 283 284 283 282
282 282 282 282 282 281 280 278 277 277 277 277 276 276 276 277 277 277 276 276 276 275 274 274 273 272 273 273 273 274 273 272 272 272 271 271 272 273 274 275 276 277 278 279 280 281 281 281 281 282 283 283 284 285 284 283 283 284 284 284 283 283
280 280 279 280 280 279 278 277 275 275 275 275 275 275 277 276 276 275 275 274 274 273 272 272 272 272 272 272 272 271 270 271 271 270 270 270 271 271 272 273 274 276 277 279 280 280 280 281 281 281 282 283 283 284 284 283 283 284 284 283 283 283
277 277 277 277 277 277 276 275 273 274 274 273 274 276 275 275 274 273 273 272 271 271 271 271 271 270 270 270 270 269 268 269 268 268 269 269 269 270 271 272 274 275 276 278 279 280 280 281 281 282 281 282 283 283 284 284 284 285 284 283 282 282
275 275 275 275 275 275 275 274 272 272 271 272 274 274 274 273 272 272 270 270 270 270 270 269 269 269 269 269 268 268 267 267 267 267 268 268 269 269 270 272 274 275 276 276 277 279 280 281 281 281 281 281 282 283 283 284 285 285 284 284 283 283
272 272 272 273 273 273 272 272 271 270 269 271 272 271 271 270 270 269 268 268 268 268 268 268 268 268 267 267 267 266 266 266 266 266 267 267 268 269 269 271 273 273 275 276 276 278 279 280 281 280 280 281 281 282 283 283 284 285 285 283 284 283
270 270 269 270 270 270 270 270 270 268 269 270 270 270 269 268 267 267 266 267 267 267 267 266 266 266 266 266 266 266 266 265 265 265 266 267 267 268 269 270 271 273 274 275 276 277 278 279 280 279 279 279 280 280 281 282 283 283 284 284 284 284
267 267 267 266 268 268 268 268 268 268 268 267 267 267 266 265 264 264 264 264 265 265 265 264 264 265 265 265 265 265 265 265 265 265 265 266 266 267 268 269 270 272 273 274 275 276 277 278 279 279 279 278 278 278 279 279 280 282 282 282 282 283
265 265 265 265 266 266 265 265 265 265 264 264 264 263 263 262 262 262 262 262 263 263 263 263 263 263 263 263 263 263 264 264 265 265 265 265 265 266 266 268 269 270 271 273 274 275 276 277 278 278 279 278 278 277 278 278 278 279 279 280 281 282
264 263 263 262 263 263 262 262 262 261 261 261 261 261 260 260 260 260 260 260 261 261 262 262 262 262 262 262 262 263 263 263 263 264 264 265 266 266 266 266 267 269 270 271 272 273 274 275 276 277 281 279 279 277 277 277 277 278 279 280 282 281
261 260 260 260 261 260 260 259 259 260 260 260 259 259 258 258 258 258 258 259 259 260 260 261 261 261 261 261 261 261 261 264 267 266 264 264 267 270 272 272 268 269 270 270 272 273 273 274 276 280 280 281 281 281 280 279 280 280 279 280 282 281
259 259 258 259 259 259 258 258 258 258 259 259 259 259 258 258 257 258 258 258 258 259 259 259 259 259 260 260 260 260 260 260 262 267 269 270 270 271 272 273 274 275 275 273 272 274 278 279 280 281 281 281 282 282 281 281 281 281 281 281 280 279
258 257 257 258 258 258 257 257 258 258 258 259 258 258 258 257 257 257 257 258 258 258 259 259 259 259 259 259 260 259 259 259 259 261 266 269 270 271 272 273 274 275 276 277 276 275 274 277 279 280 281 281 282 282 282 282 282 282 282 282 282 277
257 257 257 257 257 257 257 256 257 258 258 258 258 258 257 257 257 256 257 257 257 258 258 258 258 258 259 258 259 259 259 259 259 259 260 263 268 270 271 272 273 273 275 276 277 278 278 279 279 280 280 281 282 282 282 282 282 282 283 282 279 277
257 257 256 256 256 256 256 256 257 257 258 258 258 258 257 257 257 257 257 257 257 257 257 258 258 258 259 259 259 259 259 260 260 259 260 260 260 262 265 268 270 271 273 274 275 275 276 277 278 279 280 281 282 282 283 282 281 282 283 281 278 278
256 256 256 256 256 256 256 256 257 257 258 257 257 257 257 256 256 257 257 258 258 258 258 258 259 259 259 259 259 259 259 259 260 260 259 259 259 259 260 261 263 267 270 269 270 272 274 276 278 278 278 279 281 282 283 282 280 278 278 279 279 278
255 255 256 256 256 256 256 256 257 257 257 257 257 256 256 256 256 257 257 257 258 258 258 258 258 259 259 259 259 259 259 259 259 259 259 260 260 260 260 261 262 264 268 270 271 272 273 274 275 277 279 280 281 282 282 278 277 277 277 277 278 278
Wind_Speed
8 9 10 12 12 12 12 11 11 11 9 9 9 11 11 12 11 12 12 12 9 8 9 9 8 7 7 7 7 7 8 9 8 8 8 7 6 7 7 8 8 9 9 11 11 10 11 12 12 11 11 12 12 12 12 11 11 11 12 11 10 10
8 8 9 10 10 10 10 11 11 13 12 13 13 12 12 13 14 12 13 11 11 11 11 11 9 8 8 8 8 8 8 9 9 9 8 9 7 7 8 8 9 9 10 10 11 11 11 12 12 11 12 11 12 11 11 12 13 14 14 12 10 8
6 7 7 7 8 8 8 8 10 10 11 13 14 14 14 13 12 11 9 9 11 12 12 11 11 11 8 8 8 7 8 9 9 9 9 7 8 8 8 9 10 10 10 10 10 11 11 12 12 11 11 12 13 12 12 12 13 15 13 12 12 11
3 3 4 4 5 6 8 8 8 10 12 11 10 11 11 11 11 10 9 8 7 8 9 10 9 8 7 8 7 7 7 8 9 10 9 9 9 8 8 9 9 9 10 10 10 11 11 11 12 12 11 13 13 14 10 12 13 14 14 12 14 13
1 2 3 4 5 6 6 7 8 8 8 8 8 9 10 10 9 9 8 7 7 7 6 6 6 8 9 9 7 8 8 7 8 9 9 10 10 9 8 9 10 10 10 10 10 10 11 12 12 11 12 13 14 14 12 11 13 14 14 15 15 14
1 1 2 2 4 5 6 7 7 8 8 9 9 10 10 10 8 8 8 8 9 10 10 9 8 9 9 8 7 9 9 8 8 8 8 9 9 10 10 9 10 10 11 11 10 9 10 11 11 11 12 14 14 14 14 13 14 14 14 14 14 13
2 3 3 4 5 5 6 6 6 6 7 7 8 8 8 8 7 8 8 8 10 10 10 11 10 10 10 9 7 9 9 10 9 8 9 9 9 9 9 10 9 10 10 9 9 9 10 11 11 11 12 12 13 14 14 14 14 14 14 13 13 14
6 7 7 6 6 7 7 7 7 7 6 7 6 7 8 8 8 9 9 9 8 8 10 9 9 10 11 10 9 9 8 8 8 9 7 8 9 9 9 10 9 9 10 10 11 11 11 10 9 10 11 12 11 11 12 12 13 13 13 13 9 13
10 9 8 7 6 7 6 7 7 7 7 8 8 8 7 7 8 8 8 9 9 9 10 10 10 10 10 10 10 9 8 8 8 8 9 8 8 8 9 9 10 9 9 9 9 10 10 11 11 11 10 10 10 9 10 12 13 13 12 13 14 11
6 8 9 10 10 9 7 6 6 6 7 8 8 8 8 7 9 9 9 8 8 8 9 9 9 9 9 9 9 9 9 9 9 9 9 9 9 8 8 9 10 10 8 8 9 10 9 10 11 11 12 13 13 12 11 12 13 13 12 12 13 13
3 4 5 6 7 8 9 9 9 9 8 6 6 6 6 7 7 8 9 9 9 9 9 8 8 8 9 9 10 10 10 10 9 10 9 9 9 8 9 9 9 10 10 9 9 10 9 9 10 9 9 10 12 11 11 10 14 13 12 12 11 11
4 5 5 5 6 7 7 6 6 6 7 8 8 9 8 7 7 6 6 6 6 7 8 9 8 9 9 9 9 10 10 10 10 9 8 9 9 9 9 9 9 9 10 10 10 10 9 9 7 11 16 15 11 10 9 12 14 14 10 10 10 11
6 5 6 6 6 6 6 6 6 7 7 6 6 6 7 7 8 9 8 9 7 7 7 6 6 8 9 9 10 8 8 10 8 8 8 7 6 8 10 9 10 9 8 9 10 11 10 8 7 14 14 17 19 14 12 8 11 13 12 10 11 12
7 7 7 7 7 6 6 5 6 6 7 8 8 9 8 8 8 8 8 9 10 10 10 9 8 8 7 7 7 8 8 8 8 8 8 8 8 7 6 9 9 9 9 8 9 10 10 10 11 13 15 17 19 18 14 10 10 13 9 13 12 11
8 8 8 8 7 6 6 5 5 6 6 6 7 7 7 8 8 9 9 9 9 9 9 10 10 10 10 9 9 8 7 6 7 7 8 9 9 8 8 9 9 9 9 9 9 9 9 10 13 14 16 17 19 20 18 12 13 13 12 11 12 12
7 7 8 9 9 8 6 6 6 6 5 5 6 6 7 7 8 8 9 9 8 9 8 9 8 8 9 10 11 10 9 8 8 8 8 8 8 8 9 9 9 8 8 8 9 10 9 10 11 16 18 18 19 20 18 13 14 14 14 13 11 15
9 9 9 9 9 8 7 7 6 6 5 5 6 6 6 7 8 8 9 10 9 8 7 8 8 8 9 9 10 11 11 10 10 9 9 9 9 9 9 9 9 9 8 8 8 9 9 9 14 16 18 19 20 21 19 13 13 13 14 13 10 14
8 9 9 8 7 7 7 8 7 6 7 6 6 6 5 6 6 8 8 8 9 8 8 8 8 9 9 10 10 11 12 11 10 10 10 10 10 9 9 8 8 9 10 9 8 9 10 9 13 16 18 19 20 22 13 12 12 13 15 13 12 10
9 10 8 8 7 7 7 7 6 6 7 7 5 5 6 6 7 7 8 7 9 8 8 8 8 9 9 9 10 11 12 11 11 11 9 10 10 11 10 10 9 9 9 11 9 10 11 11 11 14 17 18 19 16 11 12 12 13 13 12 11 10
9 9 8 10 10 9 6 5 5 6 6 6 7 6 7 7 8 9 7 8 7 9 8 7 7 8 9 9 10 11 11 10 10 10 9 10 11 12 12 11 11 11 9 9 10 9 10 12 12 14 16 18 19 16 12 12 13 15 14 12 9 9
9 8 9 10 11 10 4 4 5 6 7 7 7 7 8 9 10 10 9 10 10 9 7 6 6 8 9 10 11 10 11 10 10 10 10 10 10 12 12 12 11 11 10 10 11 12 12 12 13 16 18 19 19 16 11 12 13 15 16 14 10 9
7 8 9 10 11 8 6 5 5 7 8 8 8 8 10 9 10 10 11 11 11 9 7 6 7 8 9 11 11 10 10 10 10 10 10 11 10 11 12 12 11 12 12 11 11 11 11 12 11 13 18 19 19 21 14 11 13 15 15 12 9 7
8 10 11 10 9 8 7 6 7 9 9 9 9 11 11 10 10 10 11 11 10 9 8 8 8 10 11 11 11 10 10 10 11 11 11 12 12 11 12 13 13 14 14 12 10 10 11 10 11 13 18 19 20 22 20 12 14 14 13 14 13 9
9 11 11 11 10 8 6 6 9 10 10 10 12 13 11 11 11 10 9 10 9 8 9 9 9 10 11 10 9 10 12 11 10 11 12 11 12 15 16 15 13 13 13 12 10 11 12 11 15 13 15 19 21 22 24 16 14 15 13 13 17 11
11 12 13 11 9 6 6 7 11 11 10 12 14 12 9 11 10 9 9 9 10 12 13 11 10 10 9 9 10 10 13 13 12 12 12 12 14 14 16 16 15 13 13 12 11 10 10 9 10 16 15 18 21 23 23 26 21 21 16 14 16 9
11 13 14 13 10 9 7 6 11 12 14 16 14 12 11 9 8 9 11 12 14 15 13 12 13 11 10 10 10 11 13 14 13 12 12 12 12 13 14 13 13 12 12 12 12 11 11 9 9 12 18 17 21 22 24 25 26 26 16 13 14 14
12 14 15 15 13 10 9 8 11 13 15 14 12 13 12 12 13 12 14 16 16 15 15 13 11 11 8 10 11 13 13 14 13 13 12 12 13 13 13 14 13 13 12 12 12 11 11 10 8 8 11 19 20 23 23 24 26 26 27 18 14 13
12 13 15 17 15 11 10 10 10 14 15 14 13 13 12 14 15 15 17 16 14 16 16 17 16 13 12 13 12 14 14 15 15 14 13 12 13 13 13 14 13 13 13 13 12 12 12 11 9 8 7 10 15 17 22 25 25 25 27 27 16 15
12 14 15 18 17 13 13 13 12 12 14 15 15 15 15 15 15 17 17 16 17 17 15 16 16 17 15 15 13 15 15 14 14 16 14 13 13 13 13 14 14 14 14 14 13 13 11 11 10 10 8 8 9 10 11 13 15 22 23 18 15 15
12 15 16 16 16 14 14 14 13 13 14 14 15 17 18 19 18 18 19 19 18 17 17 16 20 20 17 17 14 15 15 14 13 14 15 14 13 13 14 13 14 14 14 14 13 13 12 12 11 11 10 9 9 8 9 9 10 10 10 11 12 11
14 15 16 17 15 15 15 15 15 14 16 16 15 16 18 18 20 19 20 19 17 17 16 15 16 16 15 16 15 15 16 15 14 15 16 17 14 15 15 15 16 17 16 15 15 15 15 14 13 12 10 6 12 11 9 9 10 10 10 14 17 9
12 16 17 17 15 14 15 15 15 14 14 14 14 15 17 18 18 19 18 16 16 16 15 14 14 14 14 15 15 15 16 19 24 21 17 17 22 29 31 27 20 19 16 16 17 15 17 16 15 15 16 15 18 21 22 19 18 17 14 15 22 14
14 15 17 16 15 15 15 16 17 15 15 14 14 15 16 16 17 18 17 16 15 16 16 16 16 15 14 15 15 15 16 16 16 23 30 31 31 31 32 33 36 37 36 26 21 21 31 31 32 31 28 27 25 22 23 24 24 25 24 23 16 13
15 15 16 16 15 15 15 15 15 14 14 14 14 14 15 17 16 17 17 17 17 18 17 16 17 17 16 16 15 15 15 16 17 17 19 24 27 30 31 33 34 35 35 36 33 27 20 27 33 34 32 30 28 27 26 25 25 26 26 25 24 12
13 14 15 15 16 16 15 14 16 16 14 14 14 14 15 16 17 19 19 18 18 18 18 17 16 16 15 16 15 15 15 15 16 17 17 15 20 24 25 28 32 33 32 31 30 31 29 29 30 31 30 29 29 28 27 26 26 25 26 26 18 13
14 15 15 15 16 16 16 16 17 15 14 15 14 14 16 17 18 19 17 17 18 18 17 16 16 16 16 15 16 15 16 16 16 17 17 18 17 16 20 26 29 30 32 34 35 33 31 31 31 30 30 30 30 29 28 26 20 24 25 23 14 14
15 15 15 17 17 16 15 16 17 15 14 13 14 14 16 17 18 16 18 25 22 16 16 16 16 16 16 16 15 16 16 16 16 16 17 17 17 17 16 14 14 18 24 23 25 29 33 32 31 33 33 33 30 28 29 26 16 16 14 16 16 13
14 14 14 14 14 15 16 16 16 14 13 13 14 15 16 16 17 16 15 15 17 16 15 15 15 15 15 16 15 15 16 16 16 17 16 17 17 17 17 15 14 13 16 25 26 28 30 33 35 32 29 29 30 29 27 16 12 11 13 13 14 14
Wind_Direction
25 21 19 20 21 20 18 13 15 17 22 26 34 35 30 26 25 26 27 23 16 5 360 353 347 334 317 300 289 282 276 275 271 263 258 260 245 238 232 221 219 215 211 211 215 212 213 212 214 210 210 206 211 210 214 211 206 210 215 215 208 214
29 25 22 20 19 17 14 12 12 15 13 14 15 20 26 27 26 23 25 23 20 13 14 13 4 352 333 319 311 301 291 283 278 271 262 255 251 238 231 228 223 220 216 213 215 215 213 212 212 209 211 210 218 216 213 211 203 213 216 213 207 205
33 29 23 21 17 19 17 17 18 16 13 15 14 14 13 19 20 20 23 18 19 16 17 15 12 5 354 339 322 309 303 298 291 282 274 271 255 246 237 233 230 226 222 218 214 214 213 210 210 207 208 212 216 217 218 216 206 208 214 211 210 201
34 36 36 25 22 18 17 17 21 20 20 15 12 13 15 8 8 11 7 14 20 24 18 17 13 6 359 350 347 339 332 318 308 301 294 280 270 253 244 241 236 230 228 223 219 215 215 214 212 209 207 214 216 217 212 214 211 213 217 208 214 202
40 46 39 35 32 26 21 21 23 22 18 14 12 14 12 10 4 359 357 1 3 8 16 18 14 11 7 0 357 350 340 331 317 309 300 293 287 276 260 251 243 237 232 230 226 220 219 217 214 210 209 215 217 218 214 207 210 210 211 211 213 202
357 42 32 31 29 29 31 28 23 18 17 14 8 11 9 7 3 357 358 354 359 4 4 7 8 11 13 10 359 357 352 347 336 317 304 294 285 280 271 256 252 248 241 236 229 222 220 219 220 217 214 216 217 219 220 216 216 216 213 213 213 205
7 17 19 19 21 24 21 23 19 18 17 14 11 6 1 358 354 354 357 360 2 5 7 3 1 0 1 3 357 358 360 358 350 339 321 310 299 286 277 267 251 249 245 237 231 227 225 225 220 217 218 219 220 222 223 222 221 221 219 217 217 213
359 6 7 8 12 13 11 10 9 7 8 11 7 2 358 353 355 353 356 358 1 0 2 0 359 358 357 355 355 357 355 348 350 341 332 322 312 304 292 279 265 243 243 240 236 230 229 227 225 223 225 225 221 221 224 226 226 227 223 220 221 221
357 353 356 360 1 5 0 0 0 360 358 357 1 0 356 349 350 348 350 351 353 355 357 357 355 353 353 352 348 345 344 345 341 341 339 332 317 307 299 292 282 267 249 245 240 236 232 230 228 229 228 226 225 219 221 227 230 232 226 221 222 216
336 346 346 349 349 348 353 356 358 355 351 350 352 350 350 347 346 347 350 349 353 354 354 351 347 347 346 340 342 340 343 342 342 341 337 335 331 322 306 294 288 281 264 254 251 249 241 240 240 234 230 230 230 230 232 231 236 239 236 230 225 223
300 316 326 330 331 337 340 342 344 346 343 345 346 344 343 341 337 340 344 345 347 349 345 343 341 341 341 340 339 342 342 340 338 337 334 332 331 322 317 309 299 289 281 267 255 254 250 246 240 235 230 229 227 219 223 224 235 239 239 233 226 223
298 299 307 310 315 321 325 327 327 329 327 328 335 336 339 340 333 332 331 331 333 334 335 335 337 337 338 337 338 337 336 334 333 331 330 329 329 327 318 316 307 297 291 287 276 260 249 245 244 243 241 236 237 227 219 226 234 238 236 232 228 225
272 277 278 289 296 299 309 311 316 322 319 321 324 327 331 331 326 331 330 330 326 323 321 323 324 329 331 333 331 329 330 330 329 326 323 323 323 322 322 317 313 305 298 292 289 285 273 255 236 243 236 235 233 236 236 225 228 232 232 228 225 229
288 283 282 279 281 279 275 286 295 304 310 319 328 330 330 328 323 325 322 323 325 327 329 327 326 325 323 325 323 321 320 320 318 320 319 320 320 318 315 310 303 306 298 289 285 280 277 274 267 253 244 238 235 231 234 236 233 234 231 232 230 229
280 282 282 281 275 275 270 267 269 274 280 291 299 310 311 314 316 316 316 315 317 319 323 327 328 328 329 329 326 317 305 300 307 311 317 318 316 312 313 311 308 301 298 290 284 277 273 275 275 268 253 242 237 234 231 239 237 236 236 227 226 223
274 271 270 273 279 278 278 259 261 269 266 273 283 291 297 301 305 306 306 308 308 312 316 316 320 320 323 325 321 316 311 310 306 308 305 303 307 310 308 308 304 300 295 289 284 280 277 269 273 270 264 254 242 237 233 236 239 239 239 232 216 226
266 268 269 270 273 279 277 275 270 270 266 262 277 285 293 298 299 302 302 304 305 308 312 315 316 318 320 320 319 313 307 305 309 309 311 309 304 302 302 303 304 298 295 284 279 278 271 265 268 269 266 263 255 246 237 237 238 240 242 239 225 227
269 273 273 271 266 261 260 265 271 266 272 275 275 282 282 281 283 284 289 292 296 299 305 311 312 316 319 319 317 312 306 306 306 312 312 307 300 296 292 290 285 285 290 288 283 282 274 263 248 252 259 260 259 256 248 243 239 240 241 240 233 219
271 272 271 267 258 253 254 259 256 261 269 273 270 271 273 272 271 276 277 278 286 291 295 302 306 307 310 311 310 305 302 305 309 310 310 301 296 294 292 288 286 287 285 285 283 279 276 274 261 255 261 260 258 256 251 248 243 241 237 234 228 216
265 267 269 274 274 269 258 255 253 259 267 269 274 273 274 273 274 282 282 281 285 284 289 294 296 298 299 303 300 297 295 298 301 297 299 299 296 292 286 285 284 278 273 273 274 272 273 278 270 261 262 259 256 251 250 250 250 248 241 238 219 217
260 275 280 279 276 281 279 275 271 268 271 276 279 275 275 276 281 282 284 284 282 281 282 287 287 291 293 294 293 292 293 297 298 296 300 295 292 289 290 285 280 277 271 266 271 273 268 268 270 262 262 260 255 251 246 248 250 253 250 243 230 213
301 282 276 275 285 309 333 320 300 289 283 283 284 278 275 278 279 282 285 284 284 282 277 282 284 286 290 288 289 289 288 293 295 294 295 293 290 287 285 282 277 278 275 270 267 262 260 266 265 265 261 258 254 251 248 246 247 249 250 243 230 214
303 298 299 305 318 329 323 324 307 295 292 290 287 275 280 287 288 289 284 283 282 281 281 285 283 280 279 278 282 287 290 289 289 292 292 293 289 283 282 281 279 275 271 262 248 254 257 252 259 265 261 257 253 250 248 246 245 248 250 255 244 225
311 306 304 304 310 317 314 310 297 290 291 291 280 279 295 294 296 293 288 283 278 274 277 275 275 273 276 280 283 284 284 282 282 283 287 287 284 287 285 280 275 271 269 269 253 245 254 244 237 256 259 254 252 249 245 244 245 243 248 250 254 236
312 308 305 306 307 307 304 305 295 291 290 281 281 299 302 302 301 293 288 282 278 281 280 276 272 273 276 278 279 279 279 283 284 282 281 278 277 274 277 275 273 269 265 263 263 257 241 233 233 239 248 251 251 250 246 244 246 247 245 246 250 230
309 306 306 306 306 308 309 299 295 293 293 286 302 307 305 303 297 290 287 285 284 285 281 278 278 273 271 276 279 277 275 277 278 278 275 276 274 274 272 270 270 268 265 264 262 257 252 230 228 234 238 244 247 248 247 248 248 248 245 243 246 247
312 309 305 305 307 313 314 308 300 296 291 298 310 308 309 307 301 295 287 287 286 284 283 284 278 276 272 274 276 276 276 275 273 275 272 268 266 263 263 264 264 264 264 264 262 264 262 253 228 219 228 234 244 246 246 247 248 249 248 247 244 234
312 307 305 305 309 315 315 311 312 305 304 312 313 311 309 307 301 293 289 288 286 284 286 288 285 278 270 268 267 266 265 266 268 265 266 264 261 261 262 263 264 263 262 261 259 261 262 258 242 220 216 221 237 242 244 245 246 247 246 245 247 235
319 313 313 307 311 319 316 319 317 315 317 319 319 320 319 313 304 296 291 287 289 289 286 284 284 288 287 280 277 275 272 268 269 271 266 260 260 260 261 262 264 266 264 263 260 260 258 255 252 243 214 205 223 226 233 237 243 246 248 251 250 246
317 312 313 309 315 321 319 319 318 320 322 316 315 313 309 302 297 294 291 288 289 287 286 286 285 284 284 281 278 275 273 270 262 260 259 258 258 261 264 265 265 262 262 264 265 265 263 259 252 250 233 203 203 216 219 222 228 232 231 236 241 238
320 315 313 306 311 313 313 314 315 318 315 311 308 305 301 296 295 292 289 289 289 283 283 282 281 281 281 280 277 270 267 266 264 260 263 258 254 254 259 265 264 261 261 263 265 265 264 261 255 242 243 198 194 200 207 214 221 218 224 228 231 228
317 311 308 306 309 309 307 305 303 302 300 299 299 300 297 296 296 294 290 290 289 288 289 287 284 283 282 280 279 279 276 265 261 259 258 264 257 254 253 253 255 256 259 260 257 253 256 258 259 267 261 245 229 212 213 215 213 214 217 222 228 221
313 308 302 302 306 303 301 298 299 296 294 294 293 295 291 290 292 292 291 292 289 289 291 288 285 283 280 278 277 276 277 282 272 261 261 261 263 261 259 257 257 258 257 256 260 260 260 264 266 266 264 261 258 245 230 223 224 228 229 225 225 216
311 307 304 301 298 295 293 290 289 290 291 294 293 288 287 286 287 290 291 290 289 289 287 284 283 282 280 279 276 275 277 278 282 281 267 266 269 268 265 262 260 259 258 257 256 259 264 263 263 263 263 262 258 254 251 245 240 235 229 227 222 214
301 298 295 293 292 291 289 288 290 294 293 294 293 288 287 287 285 287 288 287 287 287 285 284 283 282 282 281 279 278 276 277 279 283 290 281 273 280 289 294 292 290 286 280 275 269 265 262 259 258 259 258 256 252 249 246 243 241 236 230 224 216
296 293 291 288 286 286 288 287 290 295 295 297 294 293 292 291 289 286 287 288 288 287 286 284 283 282 280 279 278 277 277 277 278 282 284 288 289 283 279 275 274 275 278 282 283 283 281 278 274 272 268 261 255 250 246 241 240 239 239 230 223 220
291 289 287 289 290 290 291 292 295 298 298 297 297 294 294 293 292 290 287 286 286 285 285 283 281 280 279 279 278 278 278 278 278 279 280 280 283 285 285 284 281 276 273 270 269 269 271 272 272 266 263 264 261 251 238 233 230 229 229 228 225 220
285 282 287 291 290 292 295 294 298 300 300 298 297 296 295 295 294 293 292 292 290 287 286 284 284 281 281 280 279 279 277 278 277 277 277 277 276 278 281 281 275 276 277 277 274 272 270 270 271 270 262 252 251 252 245 229 216 216 217 221 225 223